Regional Weather Roundup
Issued by NWS Kansas City/Pleasant Hill, MO

Home | Current Version | Previous Version | Text Only | Print | Product List | Glossary On
Versions: 1 2 3 4 5 6 7 8 9 10 11 12 13 14 15 16 17 18 19 20 21 22 23 24 25 26 27
000
ASUS43 KEAX 240710
RWREAX

WEATHER ROUNDUP FOR EASTERN KANSAS AND NORTHWEST MISSOURI
NATIONAL WEATHER SERVICE KANSAS CITY/PLEASANT HILL MO
100 AM CST TUE JAN 24 2017

KSZ040-057-103>105-MOZ028-029-037-043-240800-
...KANSAS CITY METROPOLITAN AREA...

CITY           SKY/WX    TMP DP  RH WIND       PRES   REMARKS
K.C. INTL      CLOUDY    31  28  89 SE9       29.80F WCI  23
K.C. DOWNTOWN  CLEAR     31  29  92 E5        29.81F WCI  26
LEES SUMMIT    CLEAR     31  30  96 E8        29.81F FOG     WCI  23
OLATHE - IXD   CLEAR     32  31  96 E9        29.79F WCI  24
OLATHE - OJC   CLEAR     31  30  96 SE6       29.79F WCI  25
LAWRENCE       CLEAR     28  28 100 E8        29.79F FOG     WCI  20

$$

MOZ001>008-011>017-020>025-030>033-038>040-044>046-053-054-240800-
...NORTHERN AND CENTRAL MISSOURI...

CITY           SKY/WX    TMP DP  RH WIND       PRES   REMARKS
ST. JOSEPH     CLOUDY    30  29  96 E5        29.82F WCI  25
MOSBY          CLOUDY    32  30  93 CALM      29.83F
WARRENSBURG    CLEAR     28  28 100 E5        29.83S FOG     WCI  23
WHITEMAN AFB   CLEAR     28  28 100 E5        29.82F WCI  23
CLINTON        CLEAR     28  28 100 E6        29.83F FOG     WCI  22
SEDALIA        CLEAR     30  28  92 SE6       29.85F FOG     WCI  24
WARSAW         NOT AVBL
CHILLICOTHE      N/A     28  26  92 CALM      29.86F
KIRKSVILLE     CLOUDY    31  29  92 NE7       29.85F WCI  24

$$

MOZ041-047>049-056>058-063>065-088>090-097-240800-
...EASTERN AND SOUTHERN MISSOURI...

CITY           SKY/WX    TMP DP  RH WIND       PRES   REMARKS
ST. LOUIS INTL CLOUDY    40  31  70 W6        29.87F
SPIRIT OF STL  CLOUDY    40  33  76 N3        29.86F
COLUMBIA       CLOUDY    34  31  88 CALM      29.86S
JEFFERSON CITY MOCLDY    29  28  96 CALM      29.88R
ROLLA          FOG       29  28  96 CALM      29.83S VSB 1/2
OSAGE BEACH    CLEAR     28  27  96 CALM      29.86F FOG
SPRINGFIELD    CLEAR     33  29  85 SE8       29.80F WCI  26
BRANSON        CLEAR     39  32  75 SE9       29.82F WCI  33
JOPLIN         CLEAR     41  33  73 SE9       29.77F
WEST PLAINS    CLOUDY    30  27  88 CALM      29.86S

$$

IAZ060-094-KSZ022-034>040-054-083-096-NEZ052-066-093-240800-
...KANSAS...SOUTHEAST NEBRASKA AND IOWA...

CITY           SKY/WX    TMP DP  RH WIND       PRES   REMARKS
TOPEKA         CLOUDY    32  28  85 E7        29.77F FOG     WCI  26
MANHATTAN      CLOUDY    35  32  88 E8        29.70F WCI  29
EMPORIA        CLEAR     33  32  96 E8        29.71F WCI  26
CHANUTE        CLEAR     39  32  76 E13       29.73F WCI  31
WICHITA        CLEAR     43  31  62 SE14      29.61F
OMAHA          CLOUDY    31  26  82 E7        29.82F WCI  24
LINCOLN        CLOUDY    30  28  92 E7        29.78F WCI  23
FALLS CITY     CLEAR     30  28  92 E9        29.78F WCI  22
LAMONI         CLOUDY    31  28  89 SE3       29.83F
DES MOINES     CLOUDY    33  27  78 VRB5      29.85F WCI  29

$$





USA.gov is the U.S. government's official web portal to all federal, state and local government web resources and services.